Flag for Switzerland Weather past 2 weeks in Schaffhausen, Schaffhausen, Switzerland

Now
69 °F

Overcast.


Feels Like: 69 °F
Forecast: 50 / 76 °F
Wind: 2 mph from West

Location: Zurich-Kloten

Current Time: Jul 26, 2014 at 12:22:32 AM

Latest Report: Jul 25, 2014 at 11:00 PM


Visibility: 16 mi

Pressure: 29.88 "Hg

Humidity: 67%

Dew point: 57 °F

Location of SchaffhausenLocation

Historic Weather in Schaffhausen — Graph

°F

Schaffhausen temperature yesterday

Maximum temperature yesterday: 80 °F (at 4:00 PM)
Minimum temperature yesterday: 56 °F (at 4:00 AM)
Average temperature yesterday: 68 °F

Past Weeks' High & Low Weather Summary

 TemperatureHumidityPressure
High90 °F (Jul 19, 6:00 PM)100% (Jul 23, 1:00 AM)30.21 "Hg (Jul 23, 1:00 AM)
Low51 °F (Jul 19, 6:00 AM)24% (Jul 18, 5:00 PM)29.79 "Hg (Jul 25, 6:00 PM)
Average67 °F75%29.97 "Hg
* Reported Jul 10 11:00 PM — Jul 25 11:00 PM, Schaffhausen, Weather by CustomWeather, © 2014

Note: Actual official high and low records may vary slightly from our data, if they occured in-between our weather recording intervals... More about our weather records

Advertising

Schaffhausen weather history for previous 24 hours

 ConditionsComfort  
Time TempWeatherWind HumidityBarometerVisibility
11:00 PM
Jul 25
69 °FOvercast.2 mph67%29.88 "Hg16 mi
10:00 PM70 °FMild.5 mph60%29.87 "HgN/A
9:00 PM71 °FMild.8 mph60%29.85 "HgN/A
8:00 PM75 °FOvercast.6 mph50%29.82 "Hg16 mi
7:00 PM77 °FWarm.7 mph44%29.82 "HgN/A
6:00 PM80 °FPleasantly warm.7 mph34%29.79 "HgN/A
5:00 PM80 °FScattered clouds.3 mph36%29.80 "Hg16 mi
4:00 PM80 °FPleasantly warm.3 mph37%29.82 "HgN/A
3:00 PM80 °FWarm.3 mph41%29.83 "HgN/A
2:00 PM79 °FPassing clouds.6 mph45%29.85 "Hg16 mi
1:00 PM76 °FMild.3 mph52%29.88 "HgN/A
12:00 PM75 °FMild.3 mph56%29.89 "HgN/A
11:00 AM71 °FSunny.6 mph60%29.91 "Hg12 mi
10:00 AM69 °FMild.3 mph70%29.92 "HgN/A
9:00 AM66 °FMild.2 mph78%29.92 "HgN/A
8:00 AM62 °FSunny.3 mph86%29.94 "Hg9 mi
7:00 AM58 °FCool.2 mph93%29.95 "HgN/A
6:00 AM57 °FCool.3 mph95%29.94 "HgN/A
5:00 AM56 °FFog.5 mph96%29.95 "Hg6 mi
4:00 AM56 °FCool.1 mph97%29.94 "HgN/A
3:00 AM56 °FCool.1 mph95%29.94 "HgN/A
2:00 AM56 °FFog.1 mph95%29.94 "Hg7 mi
1:00 AM60 °FCool.1 mph85%29.93 "HgN/A
12:00 AM60 °FCool.No wind89%29.93 "HgN/A
Weather by CustomWeather, © 2014

See weather overviewHow to use our weather pages